FW4559 Weather Reports


time (UTC)temp
C
wind
direction
speed
KPH
gust
KPH
rain 1hr
cm
rain 24hr
cm
rain mn
cm
humidity
%
barometer
mb
20260507161601 19 217 1.6 11.3 0.00 0.18 0.13 70 1007.6
20260507161058 18 230 3.2 8.0 0.00 0.18 0.13 70 1007.7
20260507160558 18 300 0.0 11.3 0.00 0.18 0.13 73 1007.8
20260507160059 18 267 1.6 11.3 0.00 0.18 0.13 71 1007.6
20260507155557 18 327 4.8 12.9 0.00 0.18 0.13 69 1007.6
20260507155106 20 347 6.4 12.9 0.00 0.18 0.13 66 1007.5
20260507154600 20 27 1.6 9.7 0.00 0.18 0.13 69 1007.5
20260507154057 20 208 1.6 11.3 0.00 0.18 0.13 69 1007.5
20260507153554 18 213 3.2 11.3 0.00 0.18 0.13 73 1007.6
20260507153056 18 157 0.0 8.0 0.00 0.18 0.13 81 1007.6
20260507152558 17 297 3.2 8.0 0.00 0.18 0.13 80 1007.8
20260507152054 17 349 1.6 6.4 0.00 0.18 0.13 78 1007.7
20260507151553 18 15 1.6 9.7 0.00 0.18 0.13 77 1007.7
20260507151053 18 224 3.2 16.1 0.00 0.18 0.13 76 1007.6
20260507150554 18 231 4.8 16.1 0.00 0.18 0.13 75 1007.6
20260507150053 19 179 1.6 6.4 0.00 0.18 0.13 72 1007.6
20260507145551 18 158 3.2 6.4 0.00 0.18 0.13 75 1007.6
20260507145050 18 248 0.0 6.4 0.00 0.18 0.13 78 1007.8
20260507144549 18 224 0.0 8.0 0.00 0.18 0.13 81 1007.9
20260507144048 17 168 1.6 9.7 0.00 0.18 0.13 81 1008.0
20260507143550 17 204 3.2 9.7 0.00 0.18 0.13 79 1007.9
20260507143052 18 240 0.0 4.8 0.00 0.18 0.13 82 1007.9
20260507142546 17 235 0.0 1.6 0.00 0.18 0.13 87 1008.1
20260507142044 17 235 0.0 3.2 0.00 0.18 0.13 87 1008.2
20260507141551 17 205 0.0 1.6 0.00 0.18 0.13 88 1008.1
20260507141044 17 205 0.0 1.6 0.00 0.18 0.13 88 1008.4
20260507140545 17 205 0.0 0.0 0.00 0.18 0.13 89 1008.2
20260507140044 16 205 0.0 3.2 0.00 0.18 0.13 89 1008.3
20260507135544 16 205 0.0 3.2 0.00 0.18 0.13 89 1008.1
20260507135042 16 209 1.6 3.2 0.00 0.18 0.13 93 1008.0
20260507134540 16 343 0.0 1.6 0.00 0.18 0.13 95 1008.1
20260507134038 15 343 0.0 1.6 0.00 0.18 0.13 94 1008.0
20260507133538 15 343 0.0 3.2 0.00 0.18 0.13 94 1008.3
20260507133055 15 343 1.6 3.2 0.00 0.18 0.13 93 1008.3
20260507132539 15 351 0.0 3.2 0.00 0.18 0.13 93 1008.3
20260507132038 15 120 0.0 1.6 0.00 0.18 0.13 94 1008.2
20260507131548 15 120 0.0 0.0 0.00 0.18 0.13 95 1008.1
20260507131036 15 120 0.0 1.6 0.00 0.18 0.13 95 1008.4
20260507130535 15 120 0.0 1.6 0.00 0.18 0.13 96 1008.4
20260507130042 15 120 0.0 1.6 0.00 0.18 0.13 96 1008.3
20260507125534 15 120 0.0 1.6 0.00 0.18 0.13 96 1008.3
20260507125032 14 120 0.0 1.6 0.00 0.18 0.13 96 1008.3
20260507124533 14 120 0.0 1.6 0.00 0.18 0.13 96 1008.7
20260507124029 14 120 0.0 1.6 0.00 0.18 0.13 96 1008.6
20260507123529 13 120 0.0 1.6 0.00 0.18 0.13 96 1008.6
20260507123031 13 120 0.0 1.6 0.00 0.18 0.13 96 1008.5
20260507122529 13 120 0.0 1.6 0.00 0.18 0.13 96 1008.9
20260507122030 13 120 0.0 1.6 0.00 0.18 0.13 96 1009.0
20260507121529 13 120 0.0 1.6 0.00 0.18 0.13 96 1009.2
20260507121028 13 120 0.0 1.6 0.00 0.18 0.13 96 1009.2
20260507120528 13 120 0.0 0.0 0.00 0.18 0.13 96 1009.2
20260507120028 13 120 0.0 0.0 0.00 0.18 0.13 96 1009.3
20260507115528 13 120 0.0 0.0 0.00 0.18 0.13 95 1009.4
20260507115031 13 120 0.0 0.0 0.03 0.18 0.13 95 1009.4
20260507114527 13 120 0.0 0.0 0.03 0.18 0.13 95 1009.4
20260507114026 13 120 0.0 0.0 0.03 0.18 0.13 95 1009.4
20260507113527 13 120 0.0 0.0 0.03 0.18 0.13 95 1009.3
20260507113026 13 120 0.0 0.0 0.03 0.18 0.13 95 1009.2
20260507112529 13 120 0.0 0.0 0.05 0.18 0.13 95 1009.2
20260507112026 13 120 0.0 1.6 0.08 0.18 0.13 95 1008.9
20260507111526 13 120 0.0 3.2 0.08 0.18 0.13 95 1009.0
20260507111025 13 120 0.0 3.2 0.08 0.18 0.13 95 1008.7
20260507110526 13 96 0.0 3.2 0.08 0.18 0.13 95 1008.7
20260507110026 13 96 0.0 3.2 0.08 0.18 0.13 95 1009.0
20260507105526 13 96 1.6 3.2 0.08 0.18 0.13 95 1008.6
20260507105028 13 356 0.0 1.6 0.05 0.15 0.10 95 1008.9
20260507104524 13 356 0.0 1.6 0.05 0.15 0.10 95 1008.9
20260507104024 13 356 0.0 1.6 0.05 0.15 0.10 95 1008.8
20260507103522 13 356 0.0 1.6 0.05 0.15 0.10 95 1008.6
20260507103023 13 356 0.0 4.8 0.05 0.15 0.10 95 1008.4
20260507102522 13 356 1.6 4.8 0.03 0.13 0.08 95 1008.5
20260507102023 13 228 0.0 3.2 0.00 0.10 0.05 95 1008.6
20260507101522 13 202 0.0 4.8 0.00 0.10 0.05 95 1008.7
20260507101023 13 255 1.6 3.2 0.00 0.10 0.05 95 1008.9
20260507100522 13 134 0.0 1.6 0.00 0.10 0.05 95 1008.6
20260507100022 13 134 0.0 1.6 0.00 0.10 0.05 95 1008.5
20260507095522 13 245 0.0 3.2 0.00 0.10 0.05 95 1008.6
20260507095022 13 245 0.0 3.2 0.00 0.10 0.05 95 1008.7
20260507094521 13 346 0.0 1.6 0.00 0.10 0.05 95 1008.7
20260507094021 13 346 0.0 1.6 0.00 0.10 0.05 95 1008.8
20260507093521 13 346 0.0 1.6 0.00 0.10 0.05 95 1008.7
20260507093025 13 346 0.0 1.6 0.00 0.10 0.05 95 1008.8
20260507092521 13 346 0.0 1.6 0.00 0.10 0.05 95 1008.7
20260507092020 13 346 0.0 1.6 0.00 0.10 0.05 95 1008.6
20260507091529 13 346 0.0 1.6 0.00 0.10 0.05 95 1008.6
20260507091021 13 346 0.0 0.0 0.00 0.10 0.05 95 1008.7
20260507090523 13 346 0.0 0.0 0.00 0.10 0.05 95 1008.7
20260507090023 13 346 0.0 0.0 0.00 0.10 0.05 95 1008.6
20260507085519 13 346 0.0 1.6 0.00 0.10 0.05 95 1008.6
20260507085018 13 346 0.0 3.2 0.00 0.10 0.05 95 1008.5
20260507084517 13 346 1.6 3.2 0.00 0.10 0.05 95 1008.4
20260507084017 13 346 1.6 3.2 0.00 0.10 0.05 95 1008.6
20260507083516 13 346 1.6 3.2 0.00 0.10 0.05 95 1008.6
20260507083016 13 346 0.0 1.6 0.00 0.10 0.05 95 1008.7
20260507082516 13 346 0.0 1.6 0.00 0.10 0.05 95 1008.7
20260507082015 13 346 0.0 1.6 0.00 0.10 0.05 95 1008.9
20260507081516 13 346 0.0 1.6 0.00 0.10 0.05 95 1008.9
20260507081015 13 346 0.0 1.6 0.00 0.10 0.05 95 1009.0
20260507080515 13 346 0.0 1.6 0.00 0.10 0.05 95 1009.1
20260507080014 13 346 0.0 1.6 0.05 0.10 0.05 95 1009.3
20260507075517 13 346 0.0 4.8 0.05 0.10 0.05 95 1009.3
20260507075017 13 346 1.6 4.8 0.05 0.10 0.05 95 1009.3
20260507074514 13 245 0.0 3.2 0.05 0.10 0.05 95 1009.3
20260507074012 13 358 0.0 1.6 0.05 0.10 0.05 95 1009.0
20260507073513 13 358 0.0 4.8 0.05 0.10 0.05 95 1008.8
20260507073012 13 358 1.6 8.0 0.05 0.10 0.05 95 1008.6
20260507072514 13 335 3.2 6.4 0.05 0.10 0.05 95 1009.0
20260507072010 13 174 0.0 1.6 0.05 0.10 0.05 95 1008.8
20260507071511 13 174 0.0 1.6 0.05 0.10 0.05 95 1008.9
20260507071012 13 174 0.0 0.0 0.05 0.10 0.05 94 1009.0
20260507070512 13 174 0.0 3.2 0.05 0.10 0.05 94 1008.9
20260507070013 14 174 0.0 8.0 0.00 0.05 0.00 94 1008.9
20260507065509 13 178 1.6 8.0 0.00 0.05 0.00 95 1009.3
20260507065009 13 224 1.6 6.4 0.00 0.05 0.00 95 1009.4
20260507064509 13 143 1.6 4.8 0.00 0.05 0.00 95 1009.3
20260507064008 13 163 0.0 4.8 0.00 0.05 0.00 94 1009.2
20260507063509 13 149 0.0 3.2 0.00 0.05 0.00 94 1009.3
20260507063008 13 207 0.0 1.6 0.00 0.05 0.00 94 1009.4
20260507062507 13 196 0.0 6.4 0.00 0.05 0.00 95 1009.5
20260507062007 13 204 3.2 9.7 0.00 0.05 0.00 95 1009.6
20260507061507 13 174 3.2 9.7 0.00 0.05 0.00 95 1009.4
20260507061006 13 162 1.6 9.7 0.00 0.05 0.00 95 1009.5
20260507060506 13 158 3.2 9.7 0.00 0.05 0.00 95 1009.7
20260507060005 13 110 3.2 6.4 0.00 0.05 0.00 95 1009.8
20260507055504 13 158 1.6 6.4 0.00 0.05 0.00 95 1009.9
20260507055005 13 143 1.6 4.8 0.00 0.05 0.00 95 1009.9
20260507054511 13 174 3.2 6.4 0.00 0.05 0.00 94 1010.0
20260507054003 13 181 1.6 6.4 0.00 0.05 0.00 94 1010.2
20260507053503 13 165 1.6 4.8 0.00 0.05 0.00 94 1010.0
20260507053001 13 148 1.6 4.8 0.00 0.05 0.00 94 1010.2
20260507052502 13 148 1.6 4.8 0.00 0.05 0.00 94 1010.5
20260507052002 13 203 0.0 3.2 0.00 0.05 0.00 94 1010.5
20260507051501 13 203 0.0 4.8 0.00 0.05 0.00 94 1010.4
20260507051101 13 171 1.6 4.8 0.00 0.05 0.00 94 1010.4
20260507050600 13 107 0.0 3.2 0.00 0.05 0.00 94 1010.3
20260507050100 13 107 0.0 3.2 0.00 0.05 0.00 94 1010.3
20260507045559 13 169 1.6 3.2 0.00 0.05 0.00 93 1010.3
20260507045057 13 146 1.6 3.2 0.00 0.05 0.00 93 1010.9
20260507044558 14 269 0.0 3.2 0.00 0.05 0.00 93 1011.4
20260507044057 14 221 0.0 4.8 0.00 0.05 0.00 93 1011.6
20260507043556 14 221 0.0 4.8 0.00 0.05 0.00 93 1011.4
20260507043056 14 238 0.0 4.8 0.00 0.05 0.00 93 1011.2
20260507042556 14 214 0.0 9.7 0.00 0.05 0.00 93 1011.4
20260507042054 13 201 1.6 9.7 0.00 0.05 0.00 94 1011.8
20260507041554 13 248 3.2 8.0 0.00 0.05 0.00 94 1011.6
20260507041052 13 144 0.0 3.2 0.00 0.05 0.00 94 1011.3
20260507040551 13 232 0.0 1.6 0.00 0.05 0.00 94 1011.3
20260507040054 13 232 0.0 1.6 0.00 0.05 0.00 94 1011.3
20260507035549 13 134 0.0 1.6 0.00 0.05 0.05 94 1011.3
20260507035150 13 134 0.0 1.6 0.00 0.05 0.05 94 1011.3
20260507034554 13 134 0.0 4.8 0.00 0.05 0.05 94 1011.1
20260507034048 13 134 0.0 4.8 0.00 0.05 0.05 94 1010.8
20260507033548 13 158 1.6 4.8 0.00 0.05 0.05 94 1011.1
20260507033052 13 189 0.0 3.2 0.00 0.05 0.05 93 1011.0
20260507032549 14 203 0.0 3.2 0.03 0.05 0.05 93 1010.9
20260507032047 14 208 0.0 3.2 0.03 0.05 0.05 93 1010.6
20260507031548 14 237 0.0 3.2 0.03 0.05 0.05 93 1010.3
20260507031048 14 237 0.0 3.2 0.03 0.05 0.05 93 1010.3
20260507030546 14 237 0.0 1.6 0.03 0.05 0.05 92 1010.2
20260507030047 14 236 0.0 1.6 0.05 0.05 0.05 92 1010.2
20260507025546 14 237 0.0 3.2 0.05 0.05 0.05 92 1010.2
20260507025046 14 214 0.0 3.2 0.05 0.05 0.05 92 1010.6
20260507024555 14 228 0.0 4.8 0.05 0.05 0.05 91 1010.3
20260507024046 14 227 0.0 4.8 0.05 0.05 0.05 91 1010.4
20260507023548 15 138 0.0 8.0 0.05 0.05 0.05 91 1010.1
20260507023049 15 94 3.2 9.7 0.05 0.05 0.05 89 1010.5
20260507022546 15 328 1.6 12.9 0.03 0.03 0.03 89 1011.8
20260507022045 15 247 3.2 12.9 0.03 0.03 0.03 89 1011.8
20260507021645 15 201 0.0 12.9 0.03 0.03 0.03 89 1011.7
20260507021044 15 207 3.2 16.1 0.03 0.03 0.03 88 1011.6
20260507020545 15 267 6.4 22.5 0.03 0.03 0.03 88 1011.6
20260507020104 15 250 4.8 22.5 0.00 0.00 0.00 87 1011.7
20260507015543 15 200 1.6 22.5 0.00 0.00 0.00 87 1011.8
20260507015043 15 305 8.0 22.5 0.00 0.00 0.00 86 1011.7
20260507014546 15 208 1.6 12.9 0.00 0.00 0.00 86 1011.6
20260507014042 15 202 4.8 16.1 0.00 0.00 0.00 86 1011.4
20260507013541 16 110 4.8 16.1 0.00 0.00 0.00 85 1011.0
20260507013051 16 170 3.2 16.1 0.00 0.00 0.00 85 1011.0
20260507012541 16 235 6.4 19.3 0.00 0.00 0.00 84 1010.9
20260507012041 16 248 6.4 14.5 0.00 0.00 0.00 84 1010.9
20260507011541 16 291 1.6 14.5 0.00 0.00 0.00 84 1010.7
20260507011042 16 261 3.2 14.5 0.00 0.00 0.00 85 1011.0
20260507010541 16 269 1.6 11.3 0.00 0.00 0.00 85 1011.0
20260507010045 16 330 1.6 11.3 0.00 0.00 0.00 86 1010.9
20260507005541 16 266 4.8 17.7 0.00 0.00 0.00 86 1010.7
20260507005043 16 217 6.4 17.7 0.00 0.00 0.00 85 1010.6
20260507004551 16 269 3.2 17.7 0.00 0.00 0.00 85 1010.5
20260507004041 16 224 8.0 17.7 0.00 0.00 0.00 85 1010.7
20260507003539 16 262 9.7 17.7 0.00 0.00 0.00 85 1010.8
20260507003044 16 173 4.8 17.7 0.00 0.00 0.00 85 1010.7
20260507002539 16 219 3.2 16.1 0.00 0.00 0.00 84 1010.7
20260507002039 16 250 6.4 16.1 0.00 0.00 0.00 84 1010.7
20260507001545 16 258 1.6 8.0 0.00 0.00 0.00 85 1010.4
20260507001038 16 130 1.6 8.0 0.00 0.00 0.00 86 1010.4
20260507000541 16 201 4.8 14.5 0.00 0.00 0.00 87 1010.5
20260507000038 16 215 3.2 14.5 0.00 0.00 0.00 87 1010.6
20260506235538 16 174 1.6 6.4 0.00 0.00 0.00 89 1010.5
20260506235038 16 175 1.6 6.4 0.00 0.00 0.00 89 1010.4
20260506234543 16 222 1.6 4.8 0.00 0.00 0.00 90 1010.6
20260506234037 16 134 0.0 11.3 0.00 0.00 0.00 90 1010.5
20260506233537 16 129 3.2 11.3 0.00 0.00 0.00 90 1010.3
20260506233039 16 102 3.2 8.0 0.00 0.00 0.00 90 1010.1
20260506232536 16 214 1.6 4.8 0.00 0.00 0.00 90 1010.1
20260506232036 16 140 0.0 4.8 0.00 0.00 0.00 90 1009.9
20260506231536 16 117 1.6 8.0 0.00 0.00 0.00 90 1010.0
20260506231037 16 147 3.2 8.0 0.00 0.00 0.00 90 1010.1
20260506230536 16 153 3.2 11.3 0.00 0.00 0.00 89 1010.1
20260506230045 16 174 1.6 11.3 0.00 0.00 0.00 89 1010.2
20260506225535 16 167 4.8 11.3 0.00 0.00 0.00 88 1010.2
20260506225035 16 144 1.6 12.9 0.00 0.00 0.00 88 1010.1
20260506224535 17 115 4.8 12.9 0.00 0.00 0.00 88 1009.9
20260506224036 17 205 1.6 4.8 0.00 0.00 0.00 88 1010.0
20260506223534 16 140 0.0 4.8 0.00 0.00 0.00 88 1009.8
20260506223041 17 150 1.6 9.7 0.00 0.00 0.00 88 1010.0
20260506222534 17 124 1.6 9.7 0.00 0.00 0.00 87 1010.2
20260506222034 17 165 3.2 8.0 0.00 0.00 0.00 87 1010.4
20260506221533 17 185 3.2 9.7 0.00 0.00 0.00 86 1010.3
20260506221033 17 127 1.6 9.7 0.00 0.00 0.00 86 1010.5
20260506220533 17 138 3.2 9.7 0.00 0.00 0.00 86 1010.5
20260506220033 17 184 4.8 8.0 0.00 0.00 0.00 85 1010.7
20260506215534 17 158 1.6 6.4 0.00 0.00 0.00 85 1010.7
20260506215036 17 243 3.2 17.7 0.00 0.00 0.00 84 1010.7
20260506214540 17 181 8.0 17.7 0.00 0.00 0.00 84 1010.8
20260506214032 17 135 6.4 14.5 0.00 0.00 0.00 84 1010.6
20260506213532 18 157 3.2 9.7 0.00 0.00 0.00 84 1010.6
20260506213033 18 134 3.2 14.5 0.00 0.00 0.00 83 1010.4
20260506212531 18 172 4.8 14.5 0.00 0.00 0.00 83 1010.4
20260506212031 18 161 4.8 14.5 0.00 0.00 0.00 82 1010.3
20260506211530 18 186 4.8 14.5 0.00 0.00 0.00 80 1010.2
20260506211031 18 138 1.6 12.9 0.00 0.00 0.00 80 1010.2
20260506210531 18 155 3.2 9.7 0.00 0.00 0.00 80 1010.1
20260506210030 18 139 3.2 8.0 0.00 0.00 0.00 81 1010.1
20260506205530 18 153 1.6 8.0 0.00 0.00 0.00 81 1009.9
20260506205030 18 151 1.6 11.3 0.00 0.00 0.00 81 1009.8
20260506204530 18 155 1.6 12.9 0.00 0.00 0.00 82 1009.8
20260506204029 18 207 4.8 12.9 0.00 0.00 0.00 81 1009.7
20260506203528 18 164 4.8 11.3 0.00 0.00 0.00 80 1009.8
20260506203032 18 77 4.8 11.3 0.00 0.00 0.00 79 1009.6
20260506202527 18 220 4.8 14.5 0.00 0.00 0.00 79 1009.8
20260506202027 18 62 8.0 20.9 0.00 0.00 0.00 78 1009.9
20260506201527 19 195 8.0 16.1 0.00 0.00 0.00 77 1010.0
20260506201026 20 141 8.0 16.1 0.00 0.00 0.00 75 1009.9
20260506200525 20 203 6.4 12.9 0.00 0.00 0.00 73 1010.1
20260506200025 20 160 4.8 17.7 0.00 0.00 0.00 71 1010.1
20260506195525 21 151 6.4 17.7 0.00 0.00 0.00 69 1010.2
20260506195025 21 189 11.3 20.9 0.00 0.00 0.00 64 1010.2
20260506194524 21 225 4.8 20.9 0.00 0.00 0.00 66 1010.2
20260506194021 20 178 3.2 11.3 0.00 0.00 0.00 70 1010.5
20260506193522 20 200 4.8 16.1 0.00 0.00 0.00 73 1010.5
20260506193021 20 146 4.8 16.1 0.00 0.00 0.00 71 1010.3
20260506192521 20 131 1.6 12.9 0.00 0.00 0.00 73 1010.1
20260506192020 20 142 3.2 11.3 0.00 0.00 0.00 74 1009.8
20260506191520 20 151 4.8 19.3 0.00 0.00 0.00 73 1010.0
20260506191020 20 150 4.8 19.3 0.00 0.00 0.00 73 1010.1
20260506190520 20 176 3.2 14.5 0.00 0.00 0.00 73 1010.0
20260506190020 20 193 3.2 12.9 0.00 0.00 0.00 73 1009.9
20260506185521 20 135 4.8 12.9 0.00 0.00 0.00 71 1010.0
20260506185022 20 166 4.8 12.9 0.00 0.00 0.00 70 1010.1
20260506184536 20 162 4.8 8.0 0.00 0.00 0.00 72 1010.0
20260506184017 20 146 4.8 8.0 0.00 0.00 0.00 74 1010.0
20260506183514 19 187 4.8 8.0 0.00 0.00 0.00 73 1010.0
20260506183021 18 163 3.2 6.4 0.00 0.00 0.00 76 1010.0
20260506182512 18 188 3.2 11.3 0.00 0.00 0.00 78 1009.9
20260506182014 18 138 3.2 11.3 0.00 0.00 0.00 79 1009.9
20260506181515 17 150 3.2 6.4 0.00 0.00 0.00 79 1010.0
20260506181017 17 145 1.6 9.7 0.00 0.00 0.00 79 1009.9
20260506180513 17 163 3.2 9.7 0.00 0.00 0.00 79 1010.1
20260506180012 17 138 3.2 14.5 0.00 0.00 0.00 77 1010.1
20260506175513 18 102 4.8 14.5 0.00 0.00 0.00 75 1010.0
20260506175011 18 140 3.2 17.7 0.00 0.00 0.00 72 1010.2
20260506174511 18 226 4.8 19.3 0.00 0.00 0.00 72 1010.2
20260506174010 18 230 3.2 19.3 0.00 0.00 0.00 72 1010.4
20260506173510 18 220 6.4 17.7 0.00 0.00 0.00 72 1010.6
20260506173009 18 232 4.8 17.7 0.00 0.00 0.00 73 1010.3
20260506172509 18 167 3.2 19.3 0.00 0.00 0.00 75 1010.4
20260506172009 17 191 6.4 16.1 0.00 0.00 0.00 74 1010.5
20260506171509 17 258 6.4 12.9 0.00 0.00 0.00 76 1011.0
20260506171011 17 130 1.6 16.1 0.00 0.00 0.00 78 1011.4
20260506170508 17 230 1.6 19.3 0.00 0.00 0.00 78 1011.8
20260506170009 17 226 8.0 19.3 0.00 0.00 0.00 78 1011.9
20260506165508 17 222 4.8 12.9 0.00 0.00 0.00 77 1011.8
20260506165008 17 331 1.6 20.9 0.00 0.00 0.00 77 1011.8
20260506164509 17 259 3.2 20.9 0.00 0.00 0.00 76 1012.1
20260506164008 17 156 4.8 22.5 0.00 0.00 0.00 75 1012.2
20260506163506 18 257 8.0 22.5 0.00 0.00 0.00 71 1012.1
20260506163008 18 175 1.6 22.5 0.00 0.00 0.00 70 1012.2
20260506162507 18 219 4.8 27.4 0.00 0.00 0.00 69 1012.3
20260506162006 18 207 8.0 27.4 0.00 0.00 0.00 69 1012.4